Voltar ao catálogo

INTELSAT 33E DEB

AtivoGEO
NORAD 64395·DEBRIS· XX

Lançado Aug 24, 2016 de Guiana Space Centre

Loading…

TLE

AtualizadoSource: Space-Track

Época: Sep 13, 2026, 05:44 UTC

1 64395U 16053Z   26256.23889530  .00000106  00000-0  00000-0 0  9998
2 64395   2.5765 107.6154 0050217 107.2147 253.8760  0.99827401  6800

Acompanhe INTELSAT 33E DEB em tempo real com AllMySat

Download on the App Store